User: anonymous   Login
Location: Arboucave
(43.6130°N, 0.4343°W)
Time: 20:08:07
(UTC+00:00)
Language:

Cosmos 676 Rocket - Orbit

View from above orbital plane
View from above orbital plane
View from above satellite
View from above satellite

Ground track
Ground track

The orbit is defined by the following mean orbital elements,

1 07434U          26021.53238932 +.00000000 +00000-0 +11710-3 0 00000
2 07434  74.0439 203.1187 0019457  55.9039 304.3958 14.38156735    01
Epoch (UTC): 21 January 2026 12:46:38
Eccentricity: 0.0019457
inclination: 74.0439°
perigee height: 751 km
apogee height: 778 km
right ascension of ascending node: 203.1187°
argument of perigee: 55.9039°
revolutions per day: 14.38156735
mean anomaly at epoch: 304.3958°

The dashed part of the orbit path shows where the satellite is in the earth's shadow,  

DLR